Flag for Estonia Weather past 2 weeks in Narva, Estonia

Now
65 °F

Partly sunny.


Feels Like: 65 °F
Forecast: 58 / 79 °F
Wind: 1 mph from Southeast

Location: Narva

Current Time: Aug 5, 2015 at 9:40:50 AM

Latest Report: Aug 5, 2015 at 9:00 AM


Visibility: 13 mi

Pressure: 30.21 "Hg

Humidity: 76%

Dew point: 57 °F

Location of NarvaLocation

Historic Weather in Narva — Graph

°F

Narva temperature yesterday

Maximum temperature yesterday: 65 °F (at 3:00 PM)
Minimum temperature yesterday: 50 °F (at 5:00 AM)
Average temperature yesterday: 59 °F

Past Weeks' High & Low Weather Summary

 TemperatureHumidityPressure
High77 °F (Jul 26, 4:00 PM)100% (Aug 5, 3:00 AM)30.21 "Hg (Aug 5, 3:00 AM)
Low43 °F (Aug 5, 5:00 AM)43% (Jul 25, 4:00 PM)29.50 "Hg (Jul 29, 7:00 AM)
Average60 °F80%29.80 "Hg
* Reported Jul 21 8:00 AM — Aug 5 8:00 AM, Narva, Weather by CustomWeather, © 2015

Note: Actual official high and low records may vary slightly from our data, if they occured in-between our weather recording intervals... More about our weather records

Advertising

Narva weather history for previous 24 hours

 ConditionsComfort  
Time TempWeatherWind HumidityBarometerVisibility
8:00 AM
Wed, Aug 5
60 °FSunny.1 mph87%30.21 "Hg12 mi
5:00 AM43 °FSunny.1 mph99%30.20 "Hg1 mi
4:00 AM44 °FClear.2 mph99%30.20 "Hg0 mi
3:00 AM44 °FClear.1 mph100%30.20 "Hg0 mi
2:00 AM46 °FClear.1 mph99%30.20 "Hg0 mi
1:00 AM47 °FClear.1 mph99%30.20 "Hg0 mi
12:00 AM47 °FClear.1 mph99%30.20 "Hg0 mi
11:00 PM
Tue, Aug 4
54 °FClear.1 mph91%30.19 "Hg12 mi
10:00 PM52 °FClear.1 mph96%30.19 "Hg12 mi
9:00 PM59 °FSunny.1 mph80%30.18 "Hg12 mi
8:00 PM63 °FSunny.2 mph68%30.18 "Hg12 mi
7:00 PM64 °FSunny.2 mph65%30.18 "Hg12 mi
6:00 PM64 °FSunny.5 mph60%30.19 "Hg12 mi
5:00 PM65 °FSunny.3 mph64%30.19 "Hg12 mi
4:00 PM65 °FSunny.5 mph63%30.19 "Hg12 mi
3:00 PM65 °FSunny.5 mph67%30.19 "Hg12 mi
2:00 PM64 °FSunny.3 mph68%30.20 "Hg12 mi
1:00 PM64 °FPassing clouds.5 mph72%30.21 "Hg12 mi
12:00 PM64 °FPassing clouds.5 mph73%30.21 "Hg12 mi
11:00 AM63 °FPassing clouds.5 mph72%30.20 "Hg12 mi
10:00 AM63 °FSunny.5 mph74%30.19 "Hg12 mi
9:00 AM62 °FPartly sunny.5 mph84%30.18 "Hg12 mi
Weather by CustomWeather, © 2015

See weather overviewHow to use our weather pages